Location: Aulus
(42.7909°N, 1.3399°E)
Time: 18:23:40
(UTC+00:00)

Lacrosse 5 rocket - Pass Details

Date: 19 May 2025
Orbit: 419 x 515 km, 57.0° (Epoch: 23 June)

Event Time Altitude Azimuth Distance (km) Brightness Sun altitude
Rises 21:24:18 0° 313° (NW) 2,475 6.2 -18.7°
Reaches altitude 10° 21:26:28 10° 314° (NW) 1,581 4.9 -18.9°
Maximum altitude 21:30:00 88° 46° (NE) 444 0.7 -19.3°
Enters shadow 21:30:18 74° 128° (SE) 460 0.7 -19.4°
